COSMOS 1275 DEB, 12747

Orbit data source: Space-Track

COSMOS 1275 DEB, 12747 is space debris in LEO originally from a launch on Thu, 04 Jun 1981 UTC launched from the Plesetsk Missile And Space Complex (PKMTR). Debris objects in space refer to the collection of defunct objects orbiting the Earth. Examples of debris include non-operational satellites, rocket bodies, and fragments generated from explosions, collisions, or faulty payload assembly.

Loading next visibility...
Identifier
12747, 1981-053CQ
Orbit
LEO
Country
Flag of CISCIS
Related business
Manufacturer
Unknown
Mission
Spacecraft
Bus & Motor
Unknown
Mass
Unknown
Launch date (UTC)
1981-06-04 (45 years ago)
Launch vehicle
Unknown
Launch site
Plesetsk Missile And Space Complex (PKMTR)
Object type
Payload
Rocket body
Debris
Shape & HBR
Unknown shape, 0.1 m
Radar Cross Section
Small (<0.1 m²)

Expand to show TLE details & history
Last TLE update: 10 hours ago

TLE from 10 hours ago
0 COSMOS 1275 DEB
1 12747U 81053CQ  26035.56427588  .00000894  00000-0  10614-2 0  9994
2 12747  83.0646 216.6808 0126293  65.8248 355.9174 13.63113288200953
Epoch: 2026-02-04T13:32Z
TLE epoch observation values (Epoch: 2026-02-04T13:32:33.436Z)
Latitude
60.96336°
Longitude
-108.5979°
Altitude
941.543 km
Speed
7.433 km/s
True Right ascension
15h 17m 04s
True Declination
60° 49' 15"
Sunlit
Object was in daylight at epoch
Visualization orbit readout
Latitude
Unknown
Longitude
Unknown
Altitude
Unknown
Speed
Unknown
Apparent Right ascension
Unknown
Apparent Declination
Unknown
Sunlit
N/A
Visualization observer readout
Local Sidereal Time
01:42:25
Azimuth
Unknown
Elevation
Unknown
Doppler factor
Unknown
Orbital elements
Apogee altitude
1,115.012 km
Perigee altitude
928.106 km
Semi-major axis
7,399.696 km
Eccentricity
0.01263
Inclination
83.0646°
RAAN
216.6808°
Arg. of periapsis
65.8248°
True anomaly
355.81272°
Mean anomaly
355.9174°
Eccentric anomaly
355.86523°
Mean motion
3.40975 °/min
Orbital period
105.58 mins
BSTAR
0.0010614
Loading maneuver chart data...
Computing Atmospheric mass density...

Documentation

Showing up to 5 results
|